Chezy-en-Orxois, France

7:53 AM CET on February 17, 2019 (GMT +0100)
Chezy-en-Orxois

Weather History for 07157 - June, 2004

Change the Weather History Date:

Tuesday, June 8, 2004

  Actual Average Record
Temperature  
Mean Temperature 76 °F -  
Max Temperature 89 °F 72 °F - ()
Min Temperature 64 °F 55 °F - ()
Cooling Degree Days 12    
Growing Degree Days 26 (Base 50)    
Moisture  
Dew Point 57 °F    
Average Humidity 52    
Maximum Humidity 78    
Minimum Humidity 29    
Precipitation  
Precipitation 0.00 in - - ()
Sea Level Pressure  
Sea Level Pressure 30.10 in    
Wind  
Wind Speed 5 mph ()    
Max Wind Speed 13 mph    
Max Gust Speed 22 mph    
T = Trace of Precipitation, MM = Missing Value Source: Averaged Metar Reports

Daily Weather History Graph

Daily Weather History Graph

Search for Another Location

Airport or City:

Astronomy

Jun. 08, 2004 Rise Set
Actual Time 5:46 AM CEST 9:51 PM CEST
Civil Twilight 5:04 AM CEST 10:34 PM CEST
Nautical Twilight 4:04 AM CEST 11:33 PM CEST
Astronomical Twilight 2:07 AM CEST 1:38 AM CEST
Moon 2:06 AM CEST (6/8) 11:38 AM CEST (6/8)
Length of Visible Light 17h 30m
Length of Day
16h 05m
Waning Gibbous, 65% of the Moon is Illuminated
Jun 8
Waning Gibbous
Jun 9
Last Quarter
Jun 17
New
Jun 25
First Quarter
Jul 2
Full

Hourly Weather History & Observations

Time (CEST) Temp. Heat Index Dew Point Humidity Pressure Visibility Wind Dir Wind Speed Gust Speed Precip Events Conditions
12:00 AM 71.6 °F - 59.0 °F 64% 30.09 in - SSE 5.8 mph - N/A   Clear
12:30 AM 71.6 °F - 59.0 °F 64% 30.09 in - SE 5.8 mph - N/A   Clear
1:00 AM 69.8 °F - 59.0 °F 68% 30.09 in - SSE 4.6 mph - N/A   Clear
1:30 AM 69.8 °F - 57.2 °F 64% 30.12 in - SE 3.5 mph - N/A   Clear
2:00 AM 68.0 °F - 57.2 °F 68% 30.12 in - East 2.3 mph - N/A   Clear
2:30 AM 66.2 °F - 59.0 °F 78% 30.12 in - SE 4.6 mph - N/A   Clear
3:00 AM 66.2 °F - 57.2 °F 73% 30.09 in - East 3.5 mph - N/A   Clear
3:30 AM 64.4 °F - 57.2 °F 77% 30.09 in - ESE 3.5 mph - N/A   Clear
4:00 AM 64.4 °F - 57.2 °F 77% 30.09 in - SE 3.5 mph - N/A   Clear
4:30 AM 66.2 °F - 57.2 °F 73% 30.09 in - SSE 3.5 mph - N/A   Clear
5:00 AM 66.2 °F - 57.2 °F 73% 30.09 in - ESE 3.5 mph - N/A   Clear
5:30 AM 64.4 °F - 57.2 °F 77% 30.09 in - SE 2.3 mph - N/A   Clear
6:00 AM 64.4 °F - 57.2 °F 77% 30.09 in - SSE 2.3 mph - N/A   Clear
6:30 AM 66.2 °F - 57.2 °F 73% 30.09 in - SE 3.5 mph - N/A   Clear
7:00 AM 66.2 °F - 57.2 °F 73% 30.09 in - SSE 4.6 mph - N/A   Clear
7:30 AM 66.2 °F - 57.2 °F 73% 30.12 in - SSE 3.5 mph - N/A   Clear
8:00 AM 68.0 °F - 57.2 °F 68% 30.12 in - SSE 3.5 mph - N/A   Clear
8:30 AM 69.8 °F - 57.2 °F 64% 30.12 in - SSE 4.6 mph - N/A   Clear
9:00 AM 71.6 °F - 59.0 °F 64% 30.12 in - SSE 5.8 mph - N/A   Clear
9:30 AM 73.4 °F - 59.0 °F 61% 30.12 in - South 9.2 mph - N/A   Clear
10:00 AM 75.2 °F - 57.2 °F 53% 30.12 in - South 8.1 mph - N/A   Clear
10:30 AM 77.0 °F - 57.2 °F 50% 30.12 in - South 6.9 mph - N/A   Clear
11:00 AM 78.8 °F - 59.0 °F 51% 30.12 in - South 8.1 mph - N/A   Clear
11:30 AM 80.6 °F 81.1 °F 59.0 °F 48% 30.12 in - South 6.9 mph - N/A   Clear
12:00 PM 82.4 °F 82.5 °F 59.0 °F 45% 30.12 in - South 8.1 mph - N/A   Clear
12:30 PM 84.2 °F 83.8 °F 59.0 °F 42% 30.12 in - South 6.9 mph - N/A   Clear
1:00 PM 84.2 °F 83.5 °F 57.2 °F 40% 30.12 in - SSW 9.2 mph - N/A   Clear
1:30 PM 86.0 °F 84.9 °F 57.2 °F 37% 30.12 in - SSW 8.1 mph - N/A   Clear
2:00 PM 86.0 °F 84.9 °F 57.2 °F 37% 30.09 in - SW 9.2 mph - N/A   Clear
2:30 PM 87.8 °F 86.5 °F 57.2 °F 35% 30.09 in - SSW 9.2 mph - N/A   Clear
3:00 PM 87.8 °F 85.7 °F 53.6 °F 31% 30.09 in - Variable 11.5 mph - N/A   Clear
3:30 PM 87.8 °F 86.1 °F 55.4 °F 33% 30.09 in - SSW 11.5 mph - N/A   Clear
4:00 PM 87.8 °F 86.1 °F 55.4 °F 33% 30.09 in - SW 10.4 mph - N/A   Clear
4:30 PM 87.8 °F 85.7 °F 53.6 °F 31% 30.09 in - SW 11.5 mph - N/A   Clear
5:00 PM 87.8 °F 85.7 °F 53.6 °F 31% 30.09 in - SW 12.7 mph - N/A   Clear
5:30 PM 89.6 °F 87.3 °F 53.6 °F 29% 30.06 in - SW 12.7 mph - N/A   Clear
6:00 PM 87.8 °F 85.7 °F 53.6 °F 31% 30.06 in - SSW 11.5 mph - N/A   Clear
6:30 PM 87.8 °F 86.1 °F 55.4 °F 33% 30.06 in - WSW 12.7 mph - N/A   Clear
7:00 PM 87.8 °F 86.1 °F 55.4 °F 33% 30.06 in - SW 10.4 mph - N/A   Clear
7:30 PM 86.0 °F 84.5 °F 55.4 °F 35% 30.06 in - WSW 10.4 mph - N/A   Clear
8:00 PM 86.0 °F 84.5 °F 55.4 °F 35% 30.06 in - WSW 9.2 mph - N/A   Clear
8:30 PM 84.2 °F 83.5 °F 57.2 °F 40% 30.06 in - WSW 9.2 mph 21.9 mph N/A   Clear
9:00 PM 84.2 °F 83.5 °F 57.2 °F 40% 30.09 in - WSW 8.1 mph - N/A   Clear
9:30 PM 82.4 °F 81.7 °F 55.4 °F 39% 30.09 in - WSW 6.9 mph - N/A   Clear
10:00 PM 80.6 °F 80.5 °F 55.4 °F 42% 30.09 in - SW 4.6 mph - N/A   Clear
10:30 PM 80.6 °F 80.5 °F 55.4 °F 42% 30.09 in - SW 3.5 mph - N/A   Clear
11:00 PM 78.8 °F - 57.2 °F 47% 30.09 in - NW 1.2 mph - N/A   Clear
11:30 PM 77.0 °F - 57.2 °F 50% 30.09 in - South 1.2 mph - N/A   Clear